sat.trackr.live / text

‹ back to catalog

FLOCK 4BE-20

NORAD 60489 · 2024-149X

PAYLOAD ACTIVE UNKNOWN

§ Identity

Operator
Country
US
Launch date
2024-08-16
Launch site
AFWTR
Launch vehicle
Mass (kg)
RCS (m²)

Purposes: earth_obs

External: N2YO · Heavens-Above · Gunter

§ Orbital elements

Epoch: 2026-05-25T03:29:33.339264Z

Period
93.67 min
Inclination
97.3693°
Eccentricity
0.0003088
Mean motion
15.37368419 rev/d
Perigee alt
451.8 km
Apogee alt
456.0 km
Semi-major
6,832.0 km
B*
3.7098e-4
RAAN
227.0892°
Arg perigee
16.6555°
Mean anomaly
343.4790°
Rev number
9,867

§ Raw data

FLOCK 4BE-201 60489U 24149X   26145.14552476  .00013515  00000+0  37098-3 0  99932 60489  97.3693 227.0892 0003088  16.6555 343.4790 15.37368419 98670

JSON: /api/v1/satellites/60489 · /tle

For live sub-satellite position, see the globe view (requires WebGL).

§ Visibility from observer

Set your observer location to see the next 7 days of passes ≥ 10°. The values pass through the URL so the page stays shareable.

No JS? Fill the form by hand. The geolocation button needs JavaScript.